GW3793 Weather Reports


Display with metric or nautical units.
time (UTC)temp
F
wind
direction
speed
MPH
gust
MPH
rain 1hr
in
rain 24hr
in
rain mn
in
humidity
%
barometer
mb
20260503223603 68 313 2.0 9.0 0.00 0.00 0.00 32 1016.0
20260503222703 68 290 2.0 8.0 0.00 0.00 0.00 33 1016.0
20260503221804 68 256 2.0 8.0 0.00 0.00 0.00 32 1016.2
20260503220903 68 252 2.0 6.0 0.00 0.00 0.00 35 1016.1
20260503220003 68 326 2.0 7.0 0.00 0.00 0.00 34 1016.5
20260503215403 68 290 2.0 9.0 0.00 0.00 0.00 33 1016.4
20260503214503 68 276 2.0 7.0 0.00 0.00 0.00 35 1016.6
20260503213603 68 286 2.0 6.0 0.00 0.00 0.00 35 1016.6
20260503212918 68 282 2.0 6.0 0.00 0.00 0.00 35 1016.7
20260503211803 68 248 2.0 8.0 0.00 0.00 0.00 37 1016.8
20260503210903 67 260 2.0 8.0 0.00 0.00 0.00 36 1016.6
20260503210003 67 304 2.0 8.0 0.00 0.00 0.00 38 1016.9
20260503205403 67 313 2.0 8.0 0.00 0.00 0.00 38 1016.8
20260503204503 68 288 2.0 6.0 0.00 0.00 0.00 37 1016.4
20260503203603 67 271 2.0 5.0 0.00 0.00 0.00 38 1016.6
20260503202703 67 298 2.0 9.0 0.00 0.00 0.00 38 1017.0
20260503201803 67 291 2.0 7.0 0.00 0.00 0.00 37 1017.1
20260503201116 67 280 2.0 5.0 0.00 0.00 0.00 39 1017.0
20260503200218 67 270 2.0 6.0 0.00 0.00 0.00 40 1017.5
20260503195403 66 267 2.0 6.0 0.00 0.00 0.00 41 1017.4
20260503194717 66 298 2.0 6.0 0.00 0.00 0.00 41 1017.5
20260503193818 66 293 2.0 11.0 0.00 0.00 0.00 42 1017.5
20260503192703 65 336 3.0 14.0 0.00 0.00 0.00 40 1017.5
20260503191803 65 323 2.0 7.0 0.00 0.00 0.00 43 1017.6
20260503191118 65 293 2.0 7.0 0.00 0.00 0.00 42 1017.7
20260503190217 65 304 3.0 9.0 0.00 0.00 0.00 42 1017.8
20260503185403 64 322 3.0 9.0 0.00 0.00 0.00 42 1018.0
20260503184504 64 295 2.0 6.0 0.00 0.00 0.00 42 1018.0
20260503183603 64 297 2.0 10.0 0.00 0.00 0.00 42 1018.1
20260503182704 63 274 2.0 8.0 0.00 0.00 0.00 43 1018.0
20260503181803 63 289 2.0 8.0 0.00 0.00 0.00 43 1018.3
20260503180903 63 339 3.0 13.0 0.00 0.00 0.00 42 1018.3
20260503180003 63 286 2.0 12.0 0.00 0.00 0.00 42 1018.1
20260503175403 63 260 2.0 12.0 0.00 0.00 0.00 45 1018.0
20260503174503 62 233 2.0 6.0 0.00 0.00 0.00 44 1017.9
20260503173603 62 268 2.0 8.0 0.00 0.00 0.00 44 1018.3
20260503172703 60 266 1.0 5.0 0.00 0.00 0.00 47 1018.4
20260503171803 60 272 1.0 5.0 0.00 0.00 0.00 46 1018.5
20260503170903 59 266 1.0 5.0 0.00 0.00 0.00 46 1018.6
20260503150903 51 298 1.0 5.0 0.00 0.00 0.00 58 1019.0
20260503150218 50 305 1.0 3.0 0.00 0.00 0.00 59 1019.0
20260503130903 37 0 0.0 0.0 0.00 0.00 0.00 78 1018.7
20260503080903 41 0 0.0 0.0 0.00 0.00 0.00 68 1018.6
20260503072703 43 123 0.0 1.0 0.00 0.00 0.00 64 1018.4
20260503071803 43 147 0.0 1.0 0.00 0.00 0.00 63 1018.4
20260503070903 44 121 0.0 3.0 0.00 0.00 0.00 63 1018.7
20260503060217 46 23 0.0 1.0 0.00 0.00 0.00 58 1018.8
20260503054503 46 19 0.0 2.0 0.00 0.00 0.00 57 1018.8
20260503053603 46 15 0.0 1.0 0.00 0.00 0.00 58 1018.8
20260503052703 47 0 0.0 0.0 0.00 0.00 0.00 57 1018.7
20260503051803 47 0 0.0 0.0 0.00 0.00 0.00 56 1018.7
20260503050903 48 0 0.0 0.0 0.00 0.00 0.00 55 1018.7
20260503050004 48 0 0.0 0.0 0.00 0.00 0.00 53 1018.7
20260503045403 48 0 0.0 0.0 0.00 0.00 0.00 54 1018.7
20260503044503 48 2 1.0 2.0 0.00 0.00 0.00 53 1018.8
20260503043603 49 4 2.0 3.0 0.00 0.00 0.00 54 1018.7
20260503042918 49 2 2.0 3.0 0.00 0.00 0.00 55 1018.9
20260503042017 49 359 1.0 2.0 0.00 0.00 0.00 54 1018.7
20260503040903 50 3 2.0 3.0 0.00 0.00 0.00 53 1018.7
20260503040003 51 2 1.0 2.0 0.00 0.00 0.00 51 1018.6
20260503035403 51 2 1.0 2.0 0.00 0.00 0.00 50 1018.6
20260503034503 52 2 1.0 3.0 0.00 0.00 0.00 49 1018.5
20260503033603 53 360 1.0 3.0 0.00 0.00 0.00 48 1018.5
20260503032703 54 355 1.0 2.0 0.00 0.00 0.00 46 1018.5
20260503031803 55 359 0.0 2.0 0.00 0.00 0.00 44 1018.1
20260503030903 56 11 1.0 2.0 0.00 0.00 0.00 42 1018.3
20260503030218 57 11 0.0 2.0 0.00 0.00 0.00 40 1017.9
20260503025403 58 269 0.0 1.0 0.00 0.00 0.00 39 1018.0
20260503024503 60 258 0.0 1.0 0.00 0.00 0.00 36 1018.0
20260503023603 61 307 0.0 3.0 0.00 0.00 0.00 35 1017.8
20260503022703 61 244 0.0 4.0 0.00 0.00 0.00 35 1017.8
20260503021803 62 257 0.0 3.0 0.00 0.00 0.00 34 1017.9
20260503020903 62 244 0.0 2.0 0.00 0.00 0.00 34 1018.1
20260503020003 62 286 1.0 3.0 0.00 0.00 0.00 32 1018.0
20260503015403 62 236 1.0 3.0 0.00 0.00 0.00 32 1018.1
20260503014718 63 215 1.0 3.0 0.00 0.00 0.00 32 1018.5
20260503013603 63 256 1.0 4.0 0.00 0.00 0.00 32 1018.0
20260503012703 63 286 2.0 4.0 0.00 0.00 0.00 30 1018.5
20260503011803 64 283 2.0 4.0 0.00 0.00 0.00 31 1018.4
20260503010903 64 274 2.0 9.0 0.00 0.00 0.00 31 1018.4
20260503010217 64 307 2.0 6.0 0.00 0.00 0.00 31 1018.5
20260503005403 64 296 1.0 4.0 0.00 0.00 0.00 32 1018.6
20260503004503 64 223 2.0 4.0 0.00 0.00 0.00 32 1018.5
20260503003603 64 266 2.0 5.0 0.00 0.00 0.00 31 1018.6
20260503002703 65 286 2.0 5.0 0.00 0.00 0.00 29 1018.4
20260503001803 65 258 2.0 4.0 0.00 0.00 0.00 30 1018.5
20260503000903 65 215 2.0 5.0 0.00 0.00 0.00 29 1018.6
20260503000004 65 222 2.0 6.0 0.00 0.00 0.00 29 1018.7
20260502235403 65 11 2.0 10.0 0.00 0.00 0.00 31 1018.8
20260502234503 65 261 2.0 5.0 0.00 0.00 0.00 28 1018.7
20260502233603 65 247 2.0 7.0 0.00 0.00 0.00 30 1018.9
20260502232703 65 297 2.0 6.0 0.00 0.00 0.00 30 1019.3
20260502231803 66 253 2.0 5.0 0.00 0.00 0.00 32 1019.0
20260502230903 65 253 2.0 9.0 0.00 0.00 0.00 30 1019.2
20260502230003 65 278 2.0 4.0 0.00 0.00 0.00 31 1019.5
20260502225403 66 277 2.0 4.0 0.00 0.00 0.00 31 1019.3
20260502224503 65 292 2.0 6.0 0.00 0.00 0.00 32 1019.7